Theta_e
315 314 316 323 325 323 323 321 319 319 319 318 319 319 321 320 319 323 332 335 337 336 334 334 334 332 331 334 334 329 321 318 318 317 313 312 310 310 311 312 312 315 316 330 326 317 317 315 313
314 315 321 321 325 324 321 320 320 320 321 319 319 321 323 326 328 334 336 335 336 336 335 334 334 331 332 333 334 330 323 320 321 321 320 318 315 311 309 309 310 311 314 327 321 317 316 314 309
314 320 324 325 323 322 320 319 320 320 319 319 321 321 323 325 328 336 337 334 336 335 334 333 332 331 332 332 334 330 325 322 322 324 325 324 322 317 312 309 307 307 311 322 320 315 314 310 307
319 319 317 323 323 320 320 319 318 320 316 315 320 323 323 323 330 331 336 335 334 335 334 332 331 331 331 331 332 331 328 325 323 325 325 325 324 323 317 312 307 305 305 307 309 310 310 307 307
320 320 322 322 321 319 317 317 320 319 317 319 320 322 325 325 330 329 331 335 336 334 334 333 331 331 331 330 331 331 330 327 325 326 326 326 324 324 322 318 312 307 305 305 306 306 306 306 306
321 319 322 322 321 318 317 316 320 319 316 318 318 320 323 323 322 324 328 334 337 334 333 334 332 332 331 331 330 331 330 329 327 327 327 326 325 323 323 320 316 311 307 305 305 305 305 305 305
322 322 322 320 319 319 318 315 319 318 317 318 318 321 321 320 322 321 328 337 336 335 333 333 333 333 332 331 331 331 331 330 329 328 328 327 326 324 323 322 319 316 311 305 303 303 303 303 304
318 321 320 319 319 320 316 315 315 317 318 315 318 320 320 323 320 322 328 335 336 335 334 334 333 333 332 332 331 331 332 331 330 329 328 328 327 324 324 320 320 317 317 316 313 308 305 304 303
315 320 321 320 318 319 314 316 312 314 315 316 317 316 316 319 321 325 328 333 335 335 335 335 335 335 334 333 332 331 332 332 331 330 329 329 327 325 326 321 319 319 318 318 317 317 317 316 316
317 320 319 317 317 317 315 315 315 315 315 316 316 316 316 318 321 326 329 332 333 333 333 334 334 334 335 335 334 332 332 332 332 330 330 330 328 325 326 325 322 321 320 320 319 319 318 318 318
313 319 313 314 313 314 315 314 313 315 317 317 317 316 316 318 320 329 332 333 329 331 333 333 334 334 334 333 332 332 333 332 331 331 330 330 328 326 325 325 324 323 322 321 320 320 319 319 319
315 312 313 314 314 314 315 314 314 314 318 316 316 315 316 315 318 319 329 332 332 327 330 333 333 334 332 331 332 332 330 330 330 330 330 330 328 327 326 325 324 324 323 322 321 320 320 319 319
314 314 312 313 313 313 313 314 315 313 315 315 315 315 315 315 316 318 327 331 325 325 329 332 332 333 333 330 331 331 331 330 330 330 329 330 329 328 326 325 325 325 323 322 322 321 320 320 319
314 314 314 313 314 313 315 315 314 316 315 315 315 315 315 315 315 318 319 320 322 324 325 329 332 329 329 332 331 330 330 330 332 331 330 329 329 328 328 326 326 326 325 323 323 321 320 319 317
312 316 315 314 314 315 313 316 315 315 315 314 314 315 315 315 315 315 316 318 319 320 324 325 329 331 330 329 330 330 329 330 328 331 331 330 330 329 329 328 327 327 326 324 323 321 319 318 317
315 316 317 315 313 314 314 318 317 312 312 314 315 315 315 315 315 315 315 316 318 319 320 322 324 326 327 326 324 329 329 329 328 327 328 329 328 328 328 329 328 326 326 324 323 321 319 318 316
316 317 317 317 313 314 315 318 317 313 312 314 315 314 314 314 315 315 315 315 316 317 319 319 320 320 319 320 322 325 326 326 327 328 327 327 327 326 326 327 328 325 324 324 322 321 319 317 315
317 317 315 316 315 313 316 316 317 315 312 314 315 316 315 315 315 315 315 315 315 316 316 317 316 315 314 314 314 314 313 314 319 326 326 324 328 327 327 327 328 326 325 324 322 321 318 317 315
314 315 315 315 313 315 316 317 317 316 315 315 315 315 316 316 318 317 316 315 314 314 315 315 315 314 314 314 313 312 312 311 311 316 328 323 325 325 326 327 328 325 326 323 322 321 318 315 314
314 316 316 316 312 313 316 316 316 316 316 316 316 316 316 316 316 318 318 317 315 314 314 314 314 314 313 313 313 312 312 312 312 314 324 323 325 324 326 327 326 326 322 322 322 321 319 315 313
315 316 315 315 313 312 313 316 317 316 314 314 314 315 315 316 316 315 315 316 317 316 315 314 314 313 313 312 311 311 311 311 312 316 322 321 321 328 325 326 325 325 323 324 322 321 319 317 312
315 313 314 314 315 316 313 314 316 316 315 314 315 316 316 315 315 315 314 315 316 317 316 315 313 313 313 312 311 311 311 312 312 317 316 319 325 326 327 326 325 323 324 323 322 320 319 316 312
315 312 313 313 316 315 315 315 315 313 315 316 316 316 316 315 315 315 315 315 315 315 315 315 314 313 313 311 311 311 310 311 312 316 317 322 326 325 323 323 324 322 322 321 320 319 318 315 310
310 313 313 313 315 317 315 315 315 316 315 316 315 315 315 314 315 315 315 315 315 315 315 314 313 313 312 312 311 310 310 310 311 315 318 322 323 323 324 322 321 319 319 320 319 319 317 313 308
313 316 316 317 318 318 312 315 315 315 314 314 315 315 314 313 314 315 315 316 316 316 315 315 314 313 312 311 310 310 309 310 311 313 317 317 323 322 323 321 319 318 318 318 318 315 312 309 305
314 315 316 322 317 315 310 315 316 315 313 313 313 314 313 313 313 314 315 315 317 317 316 315 314 313 312 310 309 309 309 310 311 311 317 319 321 322 321 320 318 318 318 317 315 308 306 305 303
313 314 314 314 307 314 314 315 315 313 312 312 312 313 314 313 314 315 316 318 318 317 316 315 315 314 312 311 309 308 308 309 311 310 318 318 319 321 320 319 318 317 317 316 312 302 302 302 299
312 313 315 314 320 318 315 314 316 316 317 315 314 314 313 313 314 316 316 317 317 317 316 315 315 314 311 310 309 308 308 309 310 311 317 318 318 319 319 318 318 316 315 313 303 299 298 297 294
313 313 312 313 315 319 317 315 315 316 316 315 315 312 313 314 314 315 317 317 317 317 316 315 314 313 313 311 309 308 308 308 310 311 312 316 317 318 318 317 317 316 313 309 300 295 294 294 293
311 314 314 315 316 314 314 316 311 313 314 312 313 312 313 314 314 316 316 317 317 317 316 315 315 315 314 312 310 308 307 309 310 310 315 315 316 317 316 316 315 314 310 303 296 295 294 293 293
Wind_Speed
3 2 2 2 4 2 1 3 1 5 5 3 6 4 2 3 2 2 16 18 19 20 20 18 15 13 12 12 10 10 11 12 12 14 14 15 15 14 13 13 13 14 15 17 15 15 15 16 15
3 1 1 0 4 4 1 4 6 5 2 7 6 4 2 2 3 8 18 19 19 19 19 17 15 14 13 12 9 9 10 11 12 13 14 15 15 14 13 13 13 13 15 15 14 14 13 14 14
3 3 1 0 2 6 2 6 6 5 8 5 4 2 1 2 5 16 12 22 21 19 18 17 15 14 13 12 10 8 9 10 11 12 13 13 13 12 12 12 12 12 14 15 12 12 12 12 14
5 3 3 4 5 1 3 6 7 12 4 5 3 3 2 7 12 13 20 20 20 19 18 18 17 15 13 11 10 7 6 7 9 10 11 12 12 12 11 11 11 11 11 11 10 11 11 13 14
6 2 3 1 3 2 2 4 13 11 5 6 6 3 3 11 16 16 20 19 19 19 19 18 17 16 14 12 10 8 7 6 7 8 9 10 11 11 11 11 10 10 11 10 10 11 12 12 14
3 1 3 5 2 1 3 6 13 8 4 4 4 5 5 13 14 17 19 19 19 19 19 18 17 15 13 12 11 8 7 6 6 7 7 8 8 8 8 10 10 10 10 10 11 11 12 12 13
3 4 4 1 2 3 3 10 13 11 6 6 2 4 4 15 18 19 20 19 19 18 18 18 17 16 14 12 11 10 8 7 7 6 5 5 6 7 7 7 8 9 10 11 11 11 11 12 13
3 2 4 3 4 4 6 11 6 11 7 5 7 4 4 15 20 21 23 21 20 20 20 19 18 16 15 13 12 11 9 8 8 7 6 4 5 8 10 8 8 9 10 10 11 12 11 12 13
5 4 7 5 6 3 8 10 6 7 4 8 9 5 6 16 21 24 25 25 24 23 23 21 20 18 16 15 14 13 11 9 9 9 7 5 4 6 8 9 10 10 10 10 10 10 10 11 12
4 5 6 3 4 3 9 10 8 6 9 8 10 13 9 18 22 25 26 26 28 27 26 25 23 21 19 17 16 13 12 12 11 9 10 10 6 4 6 7 6 7 9 10 10 11 10 10 12
2 5 3 3 4 2 6 8 7 9 8 15 17 14 17 17 24 24 24 24 26 25 27 27 26 24 21 19 18 18 15 14 12 12 12 12 9 6 7 7 6 3 4 6 7 8 9 9 10
4 1 3 4 4 4 4 3 7 15 15 8 14 10 17 19 23 27 27 26 26 28 27 27 26 24 23 22 20 18 18 17 17 16 16 13 12 11 9 9 8 6 5 5 5 6 7 8 9
3 4 3 2 4 4 4 8 9 14 19 17 10 12 17 20 22 25 25 25 29 29 29 28 27 27 27 24 23 24 22 21 19 18 17 17 16 15 13 14 12 10 9 8 7 7 8 9 7
2 3 1 1 3 4 4 5 3 6 16 20 23 21 18 20 23 25 30 31 32 30 30 30 30 28 26 28 26 26 27 25 24 24 21 20 19 18 18 17 17 14 13 11 9 6 8 7 9
3 1 2 7 3 3 3 8 15 17 12 11 20 23 23 23 24 27 28 31 32 32 31 31 31 31 30 28 30 30 30 30 27 25 23 23 23 20 20 20 20 18 19 15 9 8 9 10 10
1 0 3 4 4 2 5 12 5 6 13 19 19 19 21 24 26 27 29 31 33 32 33 31 32 32 31 31 29 32 32 33 31 29 26 27 26 23 22 23 21 17 23 16 12 9 13 13 12
1 3 5 4 4 1 8 7 4 5 7 14 15 19 22 28 29 29 30 32 34 34 34 34 33 33 32 31 31 32 34 34 36 35 31 30 30 28 27 28 27 21 24 20 14 13 15 17 16
7 5 4 7 2 4 9 17 17 17 12 17 20 21 21 25 31 30 31 32 35 36 36 36 36 34 33 33 34 34 34 35 35 36 36 32 35 33 32 32 30 23 26 24 20 17 19 19 20
4 3 5 4 2 4 12 20 19 22 24 26 27 28 28 31 30 28 29 32 35 37 40 39 39 37 37 37 37 36 36 35 36 37 38 36 35 34 32 32 32 28 28 27 22 20 22 26 25
5 8 12 9 2 5 12 21 21 23 28 28 29 30 31 31 31 34 34 34 37 39 40 41 41 40 39 38 37 37 35 34 33 34 38 38 36 37 34 33 30 28 30 32 27 26 28 30 30
8 11 10 9 3 7 11 15 15 10 19 25 31 35 34 36 34 30 34 39 38 40 42 43 42 41 40 39 38 38 35 33 34 34 37 39 37 36 35 34 33 34 35 34 31 31 31 34 36
12 12 8 6 5 7 2 10 18 18 17 13 23 29 32 33 33 32 30 37 36 38 37 42 44 43 42 41 41 40 38 38 38 37 35 36 39 41 35 32 34 30 35 37 30 32 33 36 36
3 5 7 2 5 6 10 7 10 2 11 15 23 26 27 28 26 27 27 26 26 33 37 38 42 44 44 44 42 40 39 38 38 36 32 34 31 36 33 30 33 35 36 31 32 34 38 37 35
12 8 5 3 1 8 11 10 10 11 7 5 8 12 14 14 13 13 16 20 22 27 32 36 41 43 45 46 44 43 41 41 40 38 39 40 39 39 39 37 35 31 32 32 34 35 37 36 35
4 9 3 4 5 10 3 7 15 6 10 7 14 24 11 14 12 11 10 11 14 18 23 29 34 39 43 46 45 45 42 42 39 39 40 39 42 41 41 39 35 31 33 34 34 36 37 37 33
12 10 7 8 6 9 3 11 8 9 11 20 22 28 25 25 19 15 15 13 13 15 17 19 26 32 38 43 45 44 41 41 38 37 38 37 40 41 39 38 35 33 33 35 35 36 38 37 33
8 11 10 6 1 4 9 19 18 12 16 17 23 25 26 22 19 14 12 11 12 14 16 18 21 25 32 37 40 43 43 41 38 37 39 36 38 41 38 38 36 35 35 37 37 38 38 36 33
8 8 5 4 6 10 12 13 15 6 7 10 11 12 14 18 18 13 11 11 10 10 12 16 18 21 26 29 36 40 42 40 39 36 40 40 40 39 39 39 37 36 36 38 38 38 37 35 33
6 10 3 3 5 6 8 11 8 12 11 10 8 11 9 9 13 19 13 10 9 10 11 11 14 17 22 25 31 37 40 39 38 37 38 41 39 40 40 39 40 37 38 40 41 39 37 35 32
6 15 21 8 7 5 5 15 3 4 1 2 9 6 5 2 4 13 14 10 7 7 7 10 12 14 18 21 25 31 35 37 37 36 38 38 40 40 40 41 41 40 40 43 43 42 39 36 34
Wind_Direction
253 300 341 352 240 266 233 162 327 149 176 171 153 203 252 18 330 26 155 163 164 165 170 169 163 160 156 146 135 110 104 100 95 88 87 84 83 84 84 88 87 94 93 97 94 87 83 81 76
233 176 151 190 261 275 149 157 199 167 132 134 147 147 191 97 114 141 152 163 163 166 165 165 163 161 157 152 141 124 106 102 97 92 88 87 85 83 84 86 90 92 96 98 93 90 89 85 82
199 161 228 358 281 278 312 183 159 128 137 158 161 202 197 155 144 150 166 163 163 168 165 166 164 164 161 159 154 140 119 106 99 98 95 89 85 85 88 91 94 99 102 107 104 102 96 91 92
173 133 70 260 276 261 310 161 156 147 202 200 195 185 180 171 156 164 163 168 165 170 171 169 169 169 171 166 163 149 119 105 102 102 96 87 82 80 81 85 92 96 101 108 110 104 98 96 95
178 171 205 245 275 286 247 187 175 168 163 178 183 160 168 167 166 170 173 174 173 173 176 175 175 177 177 177 174 166 146 125 114 110 101 92 82 85 90 91 93 97 102 105 105 100 98 95 92
175 188 213 246 238 233 234 188 180 191 175 171 211 170 167 186 180 180 179 178 177 180 180 182 182 184 185 183 182 180 168 151 139 132 118 97 83 81 90 94 96 97 97 99 98 97 94 93 91
202 205 230 198 252 234 198 168 195 193 191 205 215 205 180 184 184 181 177 173 177 183 187 187 189 189 190 190 189 188 180 173 166 154 135 104 73 63 73 83 94 100 102 102 100 99 101 100 94
152 177 165 202 230 239 167 174 199 206 206 215 190 220 186 192 183 182 180 179 182 187 191 194 194 195 196 198 198 197 195 189 177 169 164 138 90 82 80 79 98 103 105 103 100 99 101 100 102
154 203 225 213 186 214 163 193 198 212 205 202 205 206 210 187 184 182 185 187 188 193 193 197 200 200 203 209 209 205 202 200 195 189 190 175 138 117 104 88 92 98 101 100 99 100 98 103 103
213 226 217 155 199 218 190 202 192 194 204 224 227 222 200 188 191 190 191 193 196 198 199 201 203 204 203 206 208 210 208 204 201 213 205 194 176 168 146 116 103 101 100 100 101 102 104 109 108
204 239 169 181 191 204 200 217 192 213 219 224 222 215 214 198 200 201 202 202 203 203 205 205 206 209 206 210 214 209 213 213 214 217 221 209 203 200 193 175 165 145 128 117 117 117 120 118 112
201 179 170 132 194 178 200 211 220 217 231 222 226 216 223 218 213 212 208 206 205 208 210 209 210 208 206 211 214 213 219 218 218 222 218 217 216 209 206 215 200 205 192 183 160 148 142 136 128
208 154 172 158 209 228 217 229 241 243 238 241 233 230 230 228 228 222 215 213 214 214 214 215 217 210 214 215 215 217 219 220 227 227 222 220 221 220 217 214 218 220 207 203 204 176 163 156 150
127 144 142 220 238 256 246 257 261 255 235 237 238 241 238 236 235 224 222 221 219 219 219 219 221 222 221 221 222 218 219 222 222 226 225 225 223 225 229 219 221 220 215 201 218 211 204 189 159
94 155 271 221 208 244 230 241 237 242 240 234 239 240 239 237 235 236 235 229 225 224 222 224 224 228 231 234 226 223 221 221 223 229 224 226 227 228 232 227 224 224 219 208 213 225 213 201 184
106 156 242 130 178 237 212 257 250 216 239 248 246 243 242 243 242 240 235 232 230 227 227 227 228 231 233 234 232 229 229 223 222 224 227 231 231 234 234 234 234 245 213 205 206 223 221 205 197
158 237 228 290 191 246 223 275 271 262 242 258 255 253 249 250 245 241 239 237 233 231 230 230 232 233 234 234 233 233 233 232 223 222 222 229 232 234 237 237 231 228 221 205 215 226 223 212 198
195 211 216 247 141 223 246 257 266 265 254 261 267 265 258 255 249 244 242 239 236 234 233 233 234 235 234 233 233 234 235 234 232 224 223 223 229 233 235 236 230 231 224 223 213 223 220 210 204
124 177 249 248 173 258 256 269 269 271 271 264 260 257 255 254 254 249 246 242 239 235 235 235 234 234 234 233 233 234 235 234 232 226 223 223 228 232 230 238 227 236 225 225 217 227 222 200 201
201 247 257 282 206 227 277 274 278 266 259 258 261 260 256 256 251 250 248 246 241 238 237 236 237 236 237 237 237 238 240 238 235 227 222 222 223 229 228 229 231 225 216 215 221 231 211 206 199
225 231 243 261 317 234 292 270 259 262 255 260 259 257 259 256 257 251 252 249 246 240 239 238 238 238 238 237 236 236 237 236 233 226 222 223 223 221 229 227 231 229 232 236 228 228 223 210 199
236 212 233 261 294 276 294 289 276 272 258 241 255 257 258 261 261 260 248 252 249 248 245 242 240 239 239 237 238 239 241 238 237 229 225 220 223 227 216 231 229 234 232 220 234 233 224 214 209
222 131 175 174 245 313 232 258 267 251 271 255 250 256 259 262 263 265 268 269 259 250 246 245 242 240 239 238 239 239 238 237 238 231 224 218 212 211 222 228 233 235 216 232 235 226 215 214 215
141 101 82 91 221 262 255 233 264 252 245 272 263 266 276 273 275 267 258 251 248 246 242 238 238 238 238 239 237 238 238 238 235 228 220 219 220 219 225 224 226 233 237 235 227 220 218 215 216
211 165 204 224 196 250 73 245 250 276 258 238 271 286 285 282 267 256 260 258 254 251 246 239 238 238 238 239 237 238 236 238 237 233 225 220 217 219 222 223 225 233 235 223 220 220 218 215 217
198 202 209 225 217 260 117 241 258 230 263 267 267 271 272 272 264 259 267 254 254 250 249 242 238 237 238 238 235 235 234 236 235 233 227 225 226 224 226 227 229 226 229 222 221 217 215 214 218
176 213 245 269 122 293 250 262 269 236 259 245 257 263 271 275 273 263 246 237 233 238 244 246 245 242 241 242 237 235 235 236 234 232 224 226 227 227 230 225 225 224 225 224 220 214 213 216 221
218 145 182 208 227 238 253 262 256 280 276 252 256 266 284 287 257 241 231 223 224 238 251 256 260 258 251 247 240 236 236 236 233 228 222 226 227 230 229 225 224 224 224 220 214 212 213 215 217
188 214 220 246 222 238 258 254 248 251 250 263 289 296 302 295 239 223 209 206 225 249 258 261 265 265 264 254 244 239 236 234 233 228 223 226 225 230 228 227 225 225 224 217 214 213 213 213 214
247 233 208 213 208 240 280 264 173 226 195 335 303 285 299 297 187 194 192 202 219 248 271 267 267 275 278 266 250 242 237 234 234 230 223 224 227 230 227 228 224 223 220 216 212 212 211 212 211